Change the Weather History Date:

Monday, September 17, 2012

  Actual Average Record
Temperature  
Mean Temperature 58 °F -  
Max Temperature 78 °F 72 °F 84 °F (2000)
Min Temperature 39 °F 39 °F 26 °F (2006)
Degree Days  
Heating Degree Days 6    
Growing Degree Days 8 (Base 50)    
Moisture  
Dew Point 31 °F    
Average Humidity 48    
Maximum Humidity 81    
Minimum Humidity 15    
Precipitation  
Precipitation 0.00 in - - ()
Sea Level Pressure  
Sea Level Pressure 30.22 in    
Wind  
Wind Speed 7 mph (North)    
Max Wind Speed 33 mph    
Max Gust Speed 45 mph    
Visibility 10 miles    
Events      
Averages and records for this station are not official NWS values.
T = Trace of Precipitation, MM = Missing Value Source: NWS Daily Summary

Daily Weather History Graph

Daily Weather History Graph

Search for Another Location

Airport or City:

Trip Planner

Search our weather history database for the weather conditions in past years. The results will help you decide how hot, cold, wet, or windy it might be!

Date:

Astronomy

Sep. 17, 2012 Rise Set
Actual Time 6:47 AM MDT 7:06 PM MDT
Civil Twilight 6:21 AM MDT 7:32 PM MDT
Nautical Twilight 5:50 AM MDT 8:02 PM MDT
Astronomical Twilight 5:20 AM MDT 8:32 PM MDT
Moon 8:34 AM MDT (9/17) 7:55 PM MDT (9/17)
Length of Visible Light 13h 10m
Length of Day
12h 19m
Waxing Crescent, 4% of the Moon is Illuminated
Sep 17
Waxing Crescent
Sep 22
First Quarter
Sep 29
Full
Oct 8
Last Quarter
Oct 15
New

Hourly Weather History & Observations

Time (MDT) Temp. Windchill Dew Point Humidity Pressure Visibility Wind Dir Wind Speed Gust Speed Precip Events Conditions
12:15 AM 50.0 °F - 30.2 °F 47% 30.21 in 10.0 mi ESE 6.9 mph - N/A   Clear
12:35 AM 50.0 °F - 28.4 °F 43% 30.21 in 10.0 mi ESE 8.1 mph - N/A   Clear
12:55 AM 48.2 °F - 30.2 °F 50% 30.21 in 10.0 mi ENE 6.9 mph - N/A   Clear
1:15 AM 46.4 °F - 28.4 °F 50% 30.21 in 10.0 mi Calm Calm - N/A   Clear
1:35 AM 48.2 °F - 28.4 °F 46% 30.21 in 10.0 mi NNE 5.8 mph - N/A   Clear
1:55 AM 44.6 °F 40.7 °F 28.4 °F 53% 30.21 in 10.0 mi NNE 6.9 mph - N/A   Clear
2:15 AM 46.4 °F 44.3 °F 28.4 °F 50% 30.21 in 10.0 mi ENE 4.6 mph - N/A   Clear
2:35 AM 44.6 °F - 28.4 °F 53% 30.20 in 10.0 mi Calm Calm - N/A   Clear
2:55 AM 42.8 °F - 26.6 °F 53% 30.20 in 10.0 mi Calm Calm - N/A   Clear
3:15 AM 44.6 °F 42.2 °F 26.6 °F 49% 30.19 in 10.0 mi NNW 4.6 mph - N/A   Clear
3:55 AM 46.4 °F 45.2 °F 28.4 °F 50% 30.19 in 10.0 mi NNW 3.5 mph - N/A   Clear
4:15 AM 44.6 °F 42.2 °F 28.4 °F 53% 30.20 in 10.0 mi NNW 4.6 mph - N/A   Clear
4:35 AM 42.8 °F 38.6 °F 28.4 °F 57% 30.20 in 10.0 mi NNE 6.9 mph - N/A   Clear
4:55 AM 42.8 °F 38.0 °F 28.4 °F 57% 30.19 in 10.0 mi NNE 8.1 mph - N/A   Clear
5:15 AM 42.8 °F 38.6 °F 26.6 °F 53% 30.20 in 10.0 mi NNE 6.9 mph - N/A   Clear
5:35 AM 41.0 °F 39.0 °F 26.6 °F 57% 30.20 in 10.0 mi North 3.5 mph - N/A   Clear
6:15 AM 42.8 °F - 28.4 °F 57% 30.21 in 10.0 mi Calm Calm - N/A   Clear
6:35 AM 42.8 °F 40.1 °F 28.4 °F 57% 30.21 in 10.0 mi North 4.6 mph - N/A   Clear
6:55 AM 42.8 °F 41.1 °F 26.6 °F 53% 30.21 in 10.0 mi North 3.5 mph - N/A   Clear
7:15 AM 42.8 °F 39.3 °F 28.4 °F 57% 30.22 in 10.0 mi North 5.8 mph - N/A   Clear
7:35 AM 44.6 °F - 30.2 °F 57% 30.22 in 10.0 mi Calm Calm - N/A   Clear
7:55 AM 46.4 °F 45.2 °F 30.2 °F 53% 30.22 in 10.0 mi North 3.5 mph - N/A   Clear
8:15 AM 48.2 °F - 30.2 °F 50% 30.22 in 10.0 mi North 3.5 mph - N/A   Clear
8:35 AM 50.0 °F - 30.2 °F 47% 30.22 in 10.0 mi North 3.5 mph - N/A   Clear
8:55 AM 51.8 °F - 30.2 °F 44% 30.22 in 10.0 mi Calm Calm - N/A   Clear
9:15 AM 55.4 °F - 30.2 °F 38% 30.22 in 10.0 mi NNW 4.6 mph - N/A   Clear
9:35 AM 55.4 °F - 32.0 °F 41% 30.22 in 10.0 mi Calm Calm - N/A   Clear
9:55 AM 60.8 °F - 32.0 °F 34% 30.23 in 10.0 mi Calm Calm - N/A   Clear
10:15 AM 62.6 °F - 30.2 °F 30% 30.23 in 10.0 mi Calm Calm - N/A   Clear
10:35 AM 62.6 °F - 28.4 °F 27% 30.22 in 10.0 mi SSW 8.1 mph - N/A   Clear
10:55 AM 64.4 °F - 28.4 °F 26% 30.22 in 10.0 mi SW 6.9 mph - N/A   Clear
11:15 AM 66.2 °F - 30.2 °F 26% 30.21 in 10.0 mi WSW 6.9 mph - N/A   Clear
11:35 AM 66.2 °F - 30.2 °F 26% 30.20 in 10.0 mi WSW 5.8 mph - N/A   Clear
11:55 AM 68.0 °F - 28.4 °F 23% 30.19 in 10.0 mi SW 8.1 mph - N/A   Clear
12:15 PM 69.8 °F - 28.4 °F 21% 30.19 in 10.0 mi SSW 5.8 mph - N/A   Clear
12:35 PM 69.8 °F - 28.4 °F 21% 30.18 in 10.0 mi SSE 3.5 mph - N/A   Clear
12:55 PM 71.6 °F - 30.2 °F 22% 30.17 in 10.0 mi South 4.6 mph - N/A   Clear
1:15 PM 73.4 °F - 28.4 °F 19% 30.15 in 10.0 mi WSW 12.7 mph 16.1 mph N/A   Clear
1:35 PM 75.2 °F - 28.4 °F 18% 30.14 in 10.0 mi South 15.0 mph 19.6 mph N/A   Clear
1:55 PM 75.2 °F - 26.6 °F 17% 30.13 in 10.0 mi SW 17.3 mph 26.5 mph N/A   Partly Cloudy
2:15 PM 73.4 °F - 26.6 °F 18% 30.12 in 10.0 mi SW 19.6 mph - N/A   Mostly Cloudy
2:35 PM 75.2 °F - 24.8 °F 15% 30.11 in 10.0 mi West 16.1 mph 23.0 mph N/A   Mostly Cloudy
2:55 PM 78.8 °F - 26.6 °F 15% 30.10 in 10.0 mi West 12.7 mph 21.9 mph N/A   Partly Cloudy
3:15 PM 75.2 °F - 24.8 °F 15% 30.10 in 10.0 mi WSW 13.8 mph 24.2 mph N/A   Partly Cloudy
3:35 PM - - - N/A% 30.13 in 10.0 mi North 27.6 mph 35.7 mph N/A   Scattered Clouds
3:55 PM 62.6 °F - 32.0 °F 32% 30.15 in 10.0 mi North 29.9 mph 36.8 mph N/A   Overcast
4:15 PM - - - N/A% 30.17 in 10.0 mi North 26.5 mph 44.9 mph N/A   Overcast
4:55 PM - - - N/A% 30.25 in 10.0 mi North 33.4 mph 40.3 mph N/A   Overcast
5:15 PM 53.6 °F - 37.4 °F 54% 30.28 in 10.0 mi North 25.3 mph 41.4 mph N/A   Overcast
5:35 PM 51.8 °F - 39.2 °F 62% 30.27 in 10.0 mi NNE 19.6 mph 26.5 mph N/A   Overcast
5:55 PM 51.8 °F - 37.4 °F 58% 30.26 in 10.0 mi North 18.4 mph 23.0 mph N/A   Overcast
6:15 PM 53.6 °F - 37.4 °F 54% 30.27 in 10.0 mi NNE 12.7 mph - N/A   Overcast
6:35 PM 55.4 °F - 37.4 °F 51% 30.25 in 10.0 mi SSE 12.7 mph - N/A   Overcast
6:55 PM 53.6 °F - 39.2 °F 58% 30.27 in 10.0 mi ESE 4.6 mph - N/A   Mostly Cloudy
7:15 PM 53.6 °F - 37.4 °F 54% 30.27 in 10.0 mi SE 4.6 mph - N/A   Partly Cloudy
7:35 PM 51.8 °F - 37.4 °F 58% 30.27 in 10.0 mi SE 11.5 mph - N/A   Scattered Clouds
7:55 PM 50.0 °F - 39.2 °F 66% 30.28 in 10.0 mi ENE 5.8 mph - N/A   Mostly Cloudy
8:15 PM 48.2 °F - 35.6 °F 62% 30.29 in 10.0 mi North 4.6 mph - N/A   Partly Cloudy
8:35 PM 46.4 °F 44.3 °F 35.6 °F 66% 30.29 in 10.0 mi North 4.6 mph - N/A   Clear
8:55 PM 44.6 °F 39.7 °F 35.6 °F 71% 30.30 in 10.0 mi SE 9.2 mph - N/A   Clear
9:15 PM 48.2 °F - 35.6 °F 62% 30.31 in 10.0 mi Calm Calm - N/A   Clear
9:35 PM 44.6 °F - 35.6 °F 71% 30.31 in 10.0 mi Calm Calm - N/A   Clear
9:55 PM 44.6 °F 41.4 °F 35.6 °F 71% 30.31 in 10.0 mi NNW 5.8 mph - N/A   Clear
10:15 PM 42.8 °F 38.6 °F 35.6 °F 76% 30.31 in 10.0 mi North 6.9 mph - N/A   Clear
10:35 PM 42.8 °F 41.1 °F 33.8 °F 70% 30.31 in 10.0 mi NNE 3.5 mph - N/A   Clear
10:55 PM 42.8 °F - 35.6 °F 76% 30.32 in 10.0 mi Calm Calm - N/A   Clear
11:15 PM 41.0 °F - 33.8 °F 76% 30.32 in 10.0 mi Calm Calm - N/A   Clear
11:35 PM 39.2 °F - 33.8 °F 81% 30.33 in 10.0 mi Calm Calm - N/A   Clear
11:55 PM 41.0 °F - 33.8 °F 76% 30.33 in 10.0 mi Calm Calm - N/A   Clear